ONEWEB-0050, 45453

Orbit data source: Space-Track

ONEWEB-0050, 45453 is a payload satellite owned by One Web (UK) in LEO that was launched on Sat, 21 Mar 2020 UTC via a SOYUZ-2-1B launch vehicle from the Tyuratam Missile And Space Complex (TTMTR). Payload-class satellites include a variety of spacecraft equipped with specific instruments for various scientific and technological missions. These include communications satellites like Starlink; space stations such as the ISS; scientific satellites like the Hubble; Earth observation satellites from companies like Planet Labs, Umbra, and HawkEye 360; GPS; miniature CubeSats for education and research; and military/defense satellites.

Loading next visibility...
Identifier
45453, 2020-020AF
Orbit
LEO
Last TLE update
11 hours ago
Origin
Manufacturer
One Web
Mission
Partially operational Commercial Communications
Bus & Motor
ARROW, Unknown motor
Mass
148 kg wet, ~140 kg dry
Launch date (UTC)
2020-03-21 (5 years ago)
Launch vehicle
SOYUZ-2-1B
Launch site
Tyuratam Missile And Space Complex (TTMTR)
Object type
Payload
Rocket body
Debris
Shape & HBR
Trap Box + 2 Pan, 5 m
Radar Cross Section
2.957 m², Large (>1 m²)

Expand to show TLE details & history

TLE from 11 hours ago
0 ONEWEB-0050
1 45453U 20020AF  25186.30565688  .00002873  00000-0  29018-3 0  9991
2 45453  87.9988 290.7668 0004757 116.4330 243.7387 14.90736857288733
Epoch: 2025-07-05T07:20Z
TLE epoch observation values (Epoch: 2025-07-05T07:20:08.754Z)
Latitude
-0.00005°
Longitude
-102.81528°
Altitude
600.254 km
Speed
7.559 km/s
True Right ascension
19h 23m 04s
True Declination
0° 00' 00"
Sunlit
Object was in full shadow at epoch
Visualization orbit readout
Latitude
-53.68284°
Longitude
-105.64208°
Altitude
619.851 km
Speed
7.546 km/s
Apparent Right ascension
18h 42m 35s
Apparent Declination
-47° 08' 11"
Sunlit
Object is in full shadow
Visualization observer readout
Local Sidereal Time
06:17:53
Azimuth
209.715° SW
Elevation
-81.51°
Doppler factor
1
Orbital elements
Apogee altitude
595.812 km
Perigee altitude
589.18 km
Semi-major axis
6,970.633 km
Eccentricity
0.00048
Inclination
87.9988°
RAAN
290.7668°
Arg. of periapsis
116.433°
True anomaly
Unknown
Mean anomaly
243.7387°
Eccentric anomaly
Unknown
Mean motion
3.72936 °/min
Orbital period
96.53 mins
BSTAR
0.00029018
Loading maneuver chart data...
Loading SW <> Apogee altitude chart data...
Loading historical data...
Loading historical data...
Loading historical data...
Loading historical data...
Loading historical data...
Loading historical data...
Loading historical data...

ONEWEB-0050 Visibility forecast

Observer location: undefined°, undefined°

Span
Click to sort rows by Start time (UTC) header in descending order
Start Az.
Max El. time (UTC)
Max El. Az.
Max El.
End time (UTC)
End Az.
8 mins2025-07-05 19:10:22.428Z2.992° NNE2025-07-05 19:14:22.428Z97.75° ESE44.235°2025-07-05 19:18:22.428Z175.802° S
6 mins2025-07-06 07:38:22.428Z192.626° SSW2025-07-06 07:40:22.428Z233.147° WSW41.93°2025-07-06 07:44:22.428Z354.053° N
|